Location: Waning Moon II Observatory
(30.3730°N, 89.7620°W)
Time: 11:19:13
(UTC-06:00)

Meteor 1-21 - Visible Passes

Search period start: 24 February 2017 00:00
Search period end: 06 March 2017 00:00
Orbit: 845 x 888 km, 81.2° (Epoch: 24 February)

Date Brightness Start Highest point End Pass type
(mag) Time Alt. Az. Time Alt. Az. Time Alt. Az.
28 Feb 6.5 20:06:04 10° N 20:06:23 12° NNE 20:06:23 12° NNE visible
01 Mar 6.2 19:58:43 10° N 19:59:47 15° NNE 19:59:47 15° NNE visible
02 Mar 5.8 19:51:21 10° N 19:53:15 20° NNE 19:53:15 20° NNE visible
02 Mar 7.1 21:35:32 10° NW 21:35:39 10° NW 21:35:39 10° NW visible
03 Mar 5.4 19:44:01 10° N 19:46:49 26° NNE 19:46:49 26° NNE visible
03 Mar 6.9 21:28:13 10° NW 21:29:14 13° NW 21:29:14 13° NW visible
04 Mar 5.0 19:36:39 10° N 19:40:32 34° NE 19:40:32 34° NE visible
04 Mar 6.7 21:20:54 10° NW 21:22:56 17° WNW 21:22:56 17° WNW visible
05 Mar 4.6 19:29:18 10° N 19:34:24 39° ENE 19:34:24 39° ENE visible
05 Mar 6.5 21:13:35 10° NW 21:16:50 19° W 21:16:50 19° W visible
